DW6873 Weather Reports


Display with metric or nautical units.
time (UTC)temp
F
wind
direction
speed
MPH
gust
MPH
rain 1hr
in
rain 24hr
in
rain mn
in
humidity
%
barometer
mb
20260503231523 71 290 0.0 3.0 0.00 0.00 0.00 28 999.9
20260503230022 72 274 0.0 2.0 0.00 0.00 0.00 28 1000.1
20260503224519 71 279 0.0 3.0 0.00 0.00 0.00 29 1000.6
20260503221516 71 254 0.0 8.0 0.00 0.00 0.00 28 1001.1
20260503220014 72 274 0.0 12.0 0.00 0.00 0.00 26 1001.5
20260503214513 72 274 0.0 4.0 0.00 0.00 0.00 25 1001.8
20260503211516 72 294 0.0 17.0 0.00 0.00 0.00 27 1002.5
20260503210011 72 270 0.0 5.0 0.00 0.00 0.00 26 1002.9
20260503204509 72 268 0.0 4.0 0.00 0.00 0.00 25 1003.0
20260503203015 72 300 0.0 2.0 0.00 0.00 0.00 27 1003.6
20260503201501 71 278 0.0 7.0 0.00 0.00 0.00 27 1003.9
20260503200100 71 262 0.0 6.0 0.00 0.00 0.00 27 1004.2
20260503194600 71 287 0.0 2.0 0.00 0.00 0.00 27 1004.7
20260503193056 70 247 0.0 3.0 0.00 0.00 0.00 29 1004.9
20260503191522 70 314 0.0 7.0 0.00 0.00 0.00 28 1005.2
20260503190018 70 261 0.0 6.0 0.00 0.00 0.00 30 1005.5
20260503184511 69 282 0.0 2.0 0.00 0.00 0.00 29 1006.0
20260503183010 69 288 0.0 4.0 0.00 0.00 0.00 31 1006.4
20260503181506 69 281 0.0 7.0 0.00 0.00 0.00 29 1006.9
20260503180003 68 236 0.0 9.0 0.00 0.00 0.00 29 1007.3
20260503174557 67 278 0.0 2.0 0.00 0.00 0.00 31 1007.8
20260503173058 67 322 0.0 5.0 0.00 0.00 0.00 29 1008.1
20260503171549 67 254 0.0 7.0 0.00 0.00 0.00 31 1008.4
20260503081518 34 159 0.0 0.0 0.00 0.00 0.00 71 1012.0
20260503071558 41 13 0.0 0.0 0.00 0.00 0.00 62 1012.1
20260503060111 47 12 0.0 0.0 0.00 0.00 0.00 55 1012.0
20260503054608 47 6 0.0 0.0 0.00 0.00 0.00 56 1011.9
20260503053052 48 341 0.0 0.0 0.00 0.00 0.00 55 1011.8
20260503051550 49 1 0.0 0.0 0.00 0.00 0.00 57 1011.8
20260503050047 50 334 0.0 0.0 0.00 0.00 0.00 56 1011.7
20260503044544 51 356 0.0 0.0 0.00 0.00 0.00 56 1011.5
20260503043012 51 340 0.0 1.0 0.00 0.00 0.00 58 1011.4
20260503041510 51 330 0.0 0.0 0.00 0.00 0.00 59 1011.3
20260503040039 52 323 0.0 0.0 0.00 0.00 0.00 58 1011.3
20260503034536 53 323 0.0 0.0 0.00 0.00 0.00 57 1011.2
20260503033048 53 340 0.0 0.0 0.00 0.00 0.00 55 1011.1
20260503031533 54 322 0.0 0.0 0.00 0.00 0.00 54 1010.9
20260503030026 54 324 0.0 0.0 0.00 0.00 0.00 54 1010.8
20260503024521 55 316 0.0 0.0 0.00 0.00 0.00 52 1010.7
20260503023036 56 346 0.0 0.0 0.00 0.00 0.00 52 1010.6
20260503021516 56 312 0.0 0.0 0.00 0.00 0.00 51 1010.4
20260503020014 57 326 0.0 0.0 0.00 0.00 0.00 49 1010.1
20260503014511 58 334 0.0 0.0 0.00 0.00 0.00 48 1010.0
20260503013005 59 319 0.0 0.0 0.00 0.00 0.00 46 1009.8
20260503011506 61 312 0.0 4.0 0.00 0.00 0.00 44 1009.8
20260503010002 62 335 0.0 1.0 0.00 0.00 0.00 42 1009.6
20260503004503 63 314 0.0 4.0 0.00 0.00 0.00 40 1009.6
20260503003105 63 340 0.0 6.0 0.00 0.00 0.00 40 1009.5
20260503001600 63 332 0.0 5.0 0.00 0.00 0.00 39 1009.4
20260503000110 65 351 0.0 7.0 0.00 0.00 0.00 39 1009.3
20260502234555 65 330 0.0 4.0 0.00 0.00 0.00 34 1009.2
20260502233054 66 338 0.0 7.0 0.00 0.00 0.00 35 1009.2